LA5TUA Weather Reports


time (UTC)temp
C
wind
direction
speed
KPH
gust
KPH
rain 1hr
cm
rain 24hr
cm
rain mn
cm
humidity
%
barometer
mb
20260507233817 6 99 1.6 6.4 0.00 0.00 0.00 67 1020.3
20260507232753 7 130 3.2 6.4 0.00 0.00 0.00 66 1020.3
20260507231723 7 111 1.6 6.4 0.00 0.00 0.00 66 1020.3
20260507230656 7 94 3.2 6.4 0.00 0.00 0.00 63 1020.0
20260507225624 7 140 6.4 8.0 0.00 0.00 0.00 62 1020.0
20260507224554 7 103 3.2 6.4 0.00 0.00 0.00 61 1020.0
20260507223526 7 131 3.2 8.0 0.00 0.00 0.00 62 1020.0
20260507222453 7 138 1.6 3.2 0.00 0.00 0.00 63 1020.0
20260507221419 8 134 1.6 4.8 0.00 0.00 0.00 66 1020.0
20260507220352 8 113 1.6 4.8 0.00 0.00 0.00 61 1020.0
20260507214302 8 157 0.0 4.8 0.00 0.00 0.00 56 1019.6
20260507212158 8 210 3.2 8.0 0.00 0.00 0.00 57 1019.6
20260507211136 8 221 1.6 8.0 0.00 0.00 0.00 65 1019.6
20260507210110 8 178 1.6 6.4 0.00 0.00 0.00 67 1019.6
20260507205108 8 171 6.4 6.4 0.00 0.00 0.00 67 1019.6
20260507204036 9 209 3.2 6.4 0.00 0.00 0.00 68 1019.3
20260507203015 8 159 6.4 9.7 0.00 0.00 0.00 64 1019.3
20260507200941 9 137 4.8 12.9 0.00 0.00 0.00 66 1019.3
20260507195910 9 151 4.8 4.8 0.00 0.00 0.00 64 1019.3
20260507194843 9 129 0.0 8.0 0.00 0.00 0.00 62 1019.3
20260507193811 10 157 1.6 8.0 0.00 0.00 0.00 60 1019.0
20260507192738 10 171 3.2 8.0 0.00 0.00 0.00 59 1019.0
20260507191650 10 184 1.6 8.0 0.00 0.00 0.00 60 1018.6
20260507190647 10 174 1.6 6.4 0.00 0.00 0.00 59 1018.6
20260507185612 11 179 3.2 8.0 0.00 0.00 0.00 53 1018.3
20260507184540 11 165 3.2 11.3 0.00 0.00 0.00 51 1018.3
20260507183511 11 188 4.8 9.7 0.00 0.00 0.00 44 1018.3
20260507182442 11 170 9.7 11.3 0.00 0.00 0.00 48 1018.3
20260507181410 11 196 3.2 12.9 0.00 0.00 0.00 44 1018.3
20260507180339 11 182 1.6 11.3 0.00 0.00 0.00 46 1018.3
20260507175310 11 207 3.2 14.5 0.00 0.00 0.00 47 1017.9
20260507174309 12 200 9.7 11.3 0.00 0.00 0.00 42 1017.9
20260507173241 12 175 9.7 12.9 0.00 0.00 0.00 44 1017.9
20260507172220 12 199 4.8 12.9 0.00 0.00 0.00 40 1017.9
20260507171152 12 184 8.0 12.9 0.00 0.00 0.00 42 1017.9
20260507165109 13 229 4.8 14.5 0.00 0.00 0.00 35 1017.6
20260507164044 13 173 8.0 9.7 0.00 0.00 0.00 32 1017.6
20260507163013 13 207 3.2 11.3 0.00 0.00 0.00 32 1017.6
20260507160932 13 199 14.5 14.5 0.00 0.00 0.00 32 1017.6
20260507155859 13 232 4.8 12.9 0.00 0.00 0.00 32 1017.6
20260507154832 13 173 9.7 14.5 0.00 0.00 0.00 30 1017.9
20260507153758 13 147 3.2 14.5 0.00 0.00 0.00 33 1017.6
20260507152736 13 173 9.7 16.1 0.00 0.00 0.00 34 1017.6
20260507151704 13 150 8.0 17.7 0.00 0.00 0.00 35 1017.6
20260507150634 13 200 9.7 14.5 0.00 0.00 0.00 37 1017.6
20260507145609 14 217 3.2 14.5 0.00 0.00 0.00 29 1017.6
20260507144541 14 182 11.3 11.3 0.00 0.00 0.00 32 1017.6
20260507142500 14 32 1.6 9.7 0.00 0.00 0.00 29 1017.6
20260507141429 15 355 1.6 9.7 0.00 0.00 0.00 28 1017.6
20260507140415 14 114 3.2 12.9 0.00 0.00 0.00 27 1017.6
20260507135340 14 46 1.6 8.0 0.00 0.00 0.00 27 1017.6
20260507134314 15 235 0.0 8.0 0.00 0.00 0.00 29 1017.6
20260507132254 14 340 4.8 11.3 0.00 0.00 0.00 32 1017.6
20260507131219 13 263 9.7 9.7 0.00 0.00 0.00 28 1017.6
20260507130143 12 307 8.0 12.9 0.00 0.00 0.00 27 1017.6
20260507125143 12 315 6.4 12.9 0.00 0.00 0.00 30 1017.6
20260507124113 13 355 9.7 9.7 0.00 0.00 0.00 30 1017.6
20260507123045 13 9 0.0 11.3 0.00 0.00 0.00 31 1017.6
20260507122015 13 345 3.2 11.3 0.00 0.00 0.00 30 1017.6
20260507120945 12 202 3.2 8.0 0.00 0.00 0.00 32 1017.6
20260507115918 12 264 4.8 9.7 0.00 0.00 0.00 31 1017.6
20260507114845 11 243 1.6 8.0 0.00 0.00 0.00 30 1017.6
20260507113808 12 259 3.2 8.0 0.00 0.00 0.00 31 1017.9
20260507112804 12 207 0.0 8.0 0.00 0.00 0.00 33 1017.6
20260507111735 12 270 3.2 9.7 0.00 0.00 0.00 36 1017.9
20260507105646 11 326 0.0 8.0 0.00 0.00 0.00 37 1017.9
20260507104614 12 355 0.0 8.0 0.00 0.00 0.00 38 1017.6
20260507103545 12 217 1.6 6.4 0.00 0.00 0.00 38 1017.6
20260507102515 12 263 1.6 9.7 0.00 0.00 0.00 37 1017.6
20260507101450 11 290 6.4 11.3 0.00 0.00 0.00 43 1017.6
20260507100415 11 267 1.6 9.7 0.00 0.00 0.00 49 1017.6
20260507095347 10 257 4.8 9.7 0.00 0.00 0.00 44 1017.6
20260507094324 11 286 6.4 11.3 0.00 0.00 0.00 46 1017.3
20260507093258 10 244 3.2 8.0 0.00 0.00 0.00 44 1017.6
20260507092223 11 292 3.2 6.4 0.00 0.00 0.00 46 1017.6
20260507091154 10 355 0.0 12.9 0.00 0.00 0.00 49 1017.6
20260507085106 10 333 4.8 9.7 0.00 0.00 0.00 50 1017.3
20260507084039 9 349 6.4 12.9 0.00 0.00 0.00 50 1017.3
20260507083014 9 333 3.2 12.9 0.00 0.00 0.00 48 1017.3
20260507081947 8 314 6.4 12.9 0.00 0.00 0.00 47 1017.3
20260507080916 8 314 4.8 12.9 0.00 0.00 0.00 47 1017.3
20260507074833 8 313 4.8 14.5 0.00 0.00 0.00 48 1016.9
20260507073807 8 303 4.8 16.1 0.00 0.00 0.00 48 1016.9
20260507071723 7 310 4.8 12.9 0.00 0.00 0.00 50 1016.9
20260507070655 7 340 6.4 14.5 0.00 0.00 0.00 52 1016.6
20260507065631 7 300 4.8 16.1 0.00 0.00 0.00 53 1016.6
20260507064544 7 338 4.8 17.7 0.00 0.00 0.00 56 1016.6
20260507063525 7 320 6.4 16.1 0.00 0.00 0.00 56 1016.6
20260507062454 6 351 1.6 12.9 0.00 0.00 0.00 55 1016.6
20260507061425 6 350 6.4 12.9 0.00 0.00 0.00 55 1016.3
20260507060353 6 5 6.4 16.1 0.00 0.00 0.00 57 1016.3
20260507055327 6 342 6.4 16.1 0.00 0.00 0.00 58 1016.3
20260507054259 5 333 4.8 12.9 0.00 0.00 0.00 58 1016.3
20260507053236 5 347 4.8 14.5 0.00 0.00 0.00 59 1016.3
20260507051154 5 327 4.8 14.5 0.00 0.00 0.00 59 1015.9
20260507050132 5 342 6.4 14.5 0.00 0.00 0.00 58 1015.9
20260507045102 5 350 6.4 16.1 0.00 0.00 0.00 58 1015.9
20260507044035 5 13 14.5 17.7 0.00 0.00 0.00 59 1015.9
20260507043007 5 321 6.4 16.1 0.00 0.00 0.00 58 1015.6
20260507041939 5 5 6.4 12.9 0.00 0.00 0.00 59 1015.6
20260507035857 5 23 8.0 9.7 0.00 0.00 0.00 59 1015.6
20260507033817 5 337 6.4 14.5 0.00 0.00 0.00 59 1015.2
20260507032755 5 333 4.8 12.9 0.00 0.00 0.00 59 1015.2
20260507031724 5 323 6.4 14.5 0.00 0.00 0.00 58 1015.2
20260507030657 5 46 4.8 12.9 0.00 0.00 0.00 55 1015.2
20260507025630 5 336 9.7 17.7 0.00 0.00 0.00 56 1015.2
20260507024601 5 330 4.8 16.1 0.00 0.00 0.00 57 1014.9
20260507023533 5 340 9.7 14.5 0.00 0.00 0.00 56 1014.9
20260507022506 5 43 6.4 16.1 0.00 0.00 0.00 55 1014.9
20260507021445 5 338 9.7 17.7 0.00 0.00 0.00 54 1014.9
20260507020417 5 316 9.7 12.9 0.00 0.00 0.00 55 1014.9
20260507015351 5 360 6.4 16.1 0.00 0.00 0.00 55 1014.9
20260507014342 5 326 8.0 14.5 0.00 0.00 0.00 54 1014.6
20260507013316 5 325 6.4 12.9 0.00 0.00 0.00 55 1014.6
20260507012248 6 331 4.8 12.9 0.00 0.00 0.00 58 1014.6
20260507011225 5 41 8.0 8.0 0.00 0.00 0.00 59 1014.6
20260507010155 6 333 6.4 12.9 0.00 0.00 0.00 60 1014.2
20260507004106 6 333 1.6 8.0 0.00 0.00 0.00 61 1014.2
20260507003041 6 355 6.4 8.0 0.00 0.00 0.00 60 1014.2
20260507002026 6 351 6.4 9.7 0.00 0.00 0.00 60 1014.2
20260507000956 6 334 6.4 14.5 0.00 0.00 0.00 59 1014.2
20260506235935 6 346 3.2 14.5 0.00 0.00 0.00 59 1013.9